Weather History for KIKV - February, 2013

Change the Weather History Date:

Monday, February 4, 2013

  Actual Average (KDSM) Record (KDSM)
Temperature  
Mean Temperature 22 °F 24 °F  
Max Temperature 30 °F 33 °F 61 °F (2005)
Min Temperature 15 °F 16 °F -23 °F (1883)
Degree Days  
Heating Degree Days 42 41  
Month to date heating degree days 164  
Since 1 July heating degree days 3944  
Cooling Degree Days 0 0  
Month to date cooling degree days 0  
Year to date cooling degree days 0  
Moisture  
Dew Point 17 °F    
Average Humidity 77    
Maximum Humidity 86    
Minimum Humidity 69    
Precipitation  
Precipitation 0.00 in 0.04 in 0.85 in (1986)
Month to date precipitation 0.16  
Year to date precipitation 1.16  
Snow  
Snow 0.00 in 0.30 in 5.20 in (1971)
Month to date snowfall 1.3  
Since 1 July snowfall 21.7  
Snow Depth -    
Sea Level Pressure  
Sea Level Pressure 29.91 in    
Wind  
Wind Speed 7 mph (NNW)    
Max Wind Speed 16 mph    
Max Gust Speed 24 mph    
Visibility 10 miles    
Events      
T = Trace of Precipitation, MM = Missing Value Source: NWS Daily Summary

Daily Weather History Graph

Daily Weather History Graph

Search for Another Location

Airport or City:

Trip Planner

Search our weather history database for the weather conditions in past years. The results will help you decide how hot, cold, wet, or windy it might be!

Date:

Astronomy

Feb. 04, 2013 Rise Set
Actual Time 7:22 AM CST 5:34 PM CST
Civil Twilight 6:53 AM CST 6:03 PM CST
Nautical Twilight 6:20 AM CST 6:36 PM CST
Astronomical Twilight 5:48 AM CST 7:08 PM CST
Moon 2:00 AM CST (2/4) 11:57 AM CST (2/4)
Length of Visible Light 11h 09m
Length of Day
10h 11m
Last Quarter, 37% of the Moon is Illuminated
Feb 4
Last Quarter
Feb 10
New
Feb 17
First Quarter
Feb 25
Full
Mar 4
Last Quarter

Hourly Weather History & Observations

Time (CST) Temp. Windchill Dew Point Humidity Pressure Visibility Wind Dir Wind Speed Gust Speed Precip Events Conditions
12:15 AM 28.4 °F 22.2 °F 19.4 °F 69% 29.78 in 10.0 mi South 5.8 mph - N/A   Clear
12:35 AM 28.4 °F 24.6 °F 19.4 °F 69% 29.77 in 10.0 mi South 3.5 mph - N/A   Clear
12:55 AM 28.4 °F 24.6 °F 19.4 °F 69% 29.76 in 10.0 mi South 3.5 mph - N/A   Clear
1:15 AM 28.4 °F 24.6 °F 21.2 °F 74% 29.76 in 10.0 mi South 3.5 mph - N/A   Clear
1:35 AM 26.6 °F - 21.2 °F 80% 29.75 in 10.0 mi Calm Calm - N/A   Clear
1:55 AM 26.6 °F - 19.4 °F 74% 29.75 in 10.0 mi Calm Calm - N/A   Clear
2:15 AM 28.4 °F 23.3 °F 21.2 °F 74% 29.76 in 10.0 mi North 4.6 mph - N/A   Scattered Clouds
2:35 AM 30.2 °F 26.7 °F 21.2 °F 69% 29.77 in 10.0 mi NNW 3.5 mph - N/A   Scattered Clouds
2:55 AM 28.4 °F - 21.2 °F 74% 29.77 in 10.0 mi Calm Calm - N/A   Clear
3:15 AM 28.4 °F - 23.0 °F 80% 29.76 in 10.0 mi Calm Calm - N/A   Clear
4:55 AM 24.8 °F 17.9 °F 21.2 °F 86% 29.79 in 10.0 mi NNW 5.8 mph - N/A   Clear
5:15 AM 26.6 °F 14.3 °F 19.4 °F 74% 29.80 in 10.0 mi North 16.1 mph - N/A   Clear
5:35 AM 24.8 °F 14.0 °F 17.6 °F 74% 29.81 in 10.0 mi North 11.5 mph - N/A   Clear
5:55 AM 23.0 °F 11.7 °F 17.6 °F 80% 29.82 in 10.0 mi North 11.5 mph - N/A   Clear
6:15 AM 23.0 °F 10.6 °F 17.6 °F 80% 29.83 in 10.0 mi North 13.8 mph - N/A   Scattered Clouds
6:35 AM 24.8 °F 14.0 °F 17.6 °F 74% 29.85 in 10.0 mi North 11.5 mph 18.4 mph N/A   Overcast
6:55 AM 24.8 °F 13.4 °F 17.6 °F 74% 29.87 in 10.0 mi NNW 12.7 mph 19.6 mph N/A   Overcast
7:15 AM 24.8 °F 12.9 °F 19.4 °F 80% 29.87 in 10.0 mi NNW 13.8 mph 18.4 mph N/A   Overcast
7:35 AM 24.8 °F 14.0 °F 19.4 °F 80% 29.88 in 10.0 mi NNW 11.5 mph - N/A   Overcast
7:55 AM 24.8 °F 12.9 °F 17.6 °F 74% 29.90 in 10.0 mi North 13.8 mph 19.6 mph N/A   Overcast
8:15 AM 23.0 °F 10.6 °F 17.6 °F 80% 29.91 in 10.0 mi North 13.8 mph - N/A   Overcast
8:35 AM 21.2 °F 7.3 °F 17.6 °F 86% 29.93 in 10.0 mi North 16.1 mph 24.2 mph N/A   Overcast
8:55 AM 21.2 °F 8.3 °F 15.8 °F 80% 29.94 in 5.0 mi North 13.8 mph 19.6 mph N/A   Haze
9:15 AM 21.2 °F 7.8 °F 15.8 °F 80% 29.94 in 10.0 mi North 15.0 mph 20.7 mph N/A   Overcast
9:35 AM 19.4 °F 7.9 °F 15.8 °F 86% 29.95 in 10.0 mi North 10.4 mph - N/A   Overcast
9:55 AM 21.2 °F 7.8 °F 15.8 °F 80% 29.96 in 7.0 mi North 15.0 mph 23.0 mph N/A   Overcast
10:15 AM 19.4 °F 6.0 °F 14.0 °F 80% 29.97 in 7.0 mi North 13.8 mph 17.3 mph N/A   Overcast
10:35 AM 21.2 °F 7.8 °F 14.0 °F 74% 29.99 in 7.0 mi North 15.0 mph - N/A   Overcast
10:55 AM 21.2 °F 8.9 °F 15.8 °F 80% 30.00 in 10.0 mi North 12.7 mph - N/A   Overcast
11:15 AM 21.2 °F 8.3 °F 15.8 °F 80% 30.02 in 10.0 mi NNW 13.8 mph 19.6 mph N/A   Overcast
11:35 AM 23.0 °F 10.6 °F 15.8 °F 74% 30.01 in 10.0 mi North 13.8 mph - N/A   Mostly Cloudy
11:55 AM 24.8 °F 14.0 °F 17.6 °F 74% 29.99 in 10.0 mi North 11.5 mph - N/A   Mostly Cloudy
12:15 PM 24.8 °F 15.3 °F 15.8 °F 69% 29.99 in 10.0 mi North 9.2 mph - N/A   Mostly Cloudy
12:35 PM 24.8 °F 14.6 °F 17.6 °F 74% 29.98 in 10.0 mi North 10.4 mph - N/A   Overcast
12:55 PM 24.8 °F 13.4 °F 17.6 °F 74% 29.97 in 10.0 mi North 12.7 mph - N/A   Overcast
1:15 PM 24.8 °F 14.6 °F 17.6 °F 74% 29.96 in 10.0 mi North 10.4 mph - N/A   Overcast
1:35 PM 24.8 °F 16.1 °F 17.6 °F 74% 29.95 in 10.0 mi North 8.1 mph - N/A   Overcast
1:55 PM 24.8 °F 16.1 °F 17.6 °F 74% 29.96 in 10.0 mi North 8.1 mph - N/A   Overcast
2:15 PM 24.8 °F 19.1 °F 17.6 °F 74% 29.98 in 10.0 mi North 4.6 mph - N/A   Overcast
2:35 PM 24.8 °F 16.9 °F 17.6 °F 74% 29.99 in 10.0 mi NW 6.9 mph - N/A   Overcast
2:55 PM 24.8 °F 17.9 °F 17.6 °F 74% 30.00 in 10.0 mi NW 5.8 mph - N/A   Overcast
3:15 PM 24.8 °F 20.5 °F 15.8 °F 69% 30.00 in 10.0 mi WNW 3.5 mph - N/A   Overcast
3:35 PM 24.8 °F 15.3 °F 15.8 °F 69% 30.00 in 10.0 mi NNW 9.2 mph - N/A   Overcast
4:15 PM 24.8 °F 20.5 °F 15.8 °F 69% 29.98 in 10.0 mi WNW 3.5 mph - N/A   Overcast
4:35 PM 24.8 °F 19.1 °F 15.8 °F 69% 29.97 in 10.0 mi NE 4.6 mph - N/A   Overcast
4:55 PM 24.8 °F - 15.8 °F 69% 29.96 in 10.0 mi Calm Calm - N/A   Overcast
5:15 PM 24.8 °F - 15.8 °F 69% 29.97 in 10.0 mi Calm Calm - N/A   Mostly Cloudy
5:35 PM 24.8 °F - 15.8 °F 69% 29.97 in 10.0 mi Calm Calm - N/A   Scattered Clouds
5:55 PM 23.0 °F - 15.8 °F 74% 29.97 in 10.0 mi Calm Calm - N/A   Clear
6:15 PM 23.0 °F - 15.8 °F 74% 29.97 in 10.0 mi Calm Calm - N/A   Clear
6:35 PM 21.2 °F - 14.0 °F 74% 29.97 in 10.0 mi Calm Calm - N/A   Clear
6:55 PM 17.6 °F - 12.2 °F 79% 29.96 in 10.0 mi Calm Calm - N/A   Clear
7:15 PM 17.6 °F - 14.0 °F 86% 29.96 in 10.0 mi Calm Calm - N/A   Clear
7:35 PM 17.6 °F - 14.0 °F 86% 29.97 in 10.0 mi Calm Calm - N/A   Clear
7:55 PM 17.6 °F - 14.0 °F 86% 29.96 in 10.0 mi Calm Calm - N/A   Clear
8:15 PM 15.8 °F - 10.4 °F 79% 29.95 in 10.0 mi Calm Calm - N/A   Clear
8:35 PM 15.8 °F 10.2 °F 12.2 °F 86% 29.93 in 10.0 mi SE 3.5 mph - N/A   Scattered Clouds
8:55 PM 17.6 °F 12.3 °F 12.2 °F 79% 29.94 in 10.0 mi SSE 3.5 mph - N/A   Scattered Clouds
9:15 PM 17.6 °F - 12.2 °F 79% 29.94 in 10.0 mi Calm Calm - N/A   Scattered Clouds
9:35 PM 19.4 °F 12.8 °F 15.8 °F 86% 29.94 in 10.0 mi South 4.6 mph - N/A   Scattered Clouds
9:55 PM 21.2 °F 11.7 °F 15.8 °F 80% 29.94 in 10.0 mi South 8.1 mph - N/A   Mostly Cloudy
10:15 PM 21.2 °F 12.6 °F 15.8 °F 80% 29.94 in 10.0 mi South 6.9 mph - N/A   Overcast
10:35 PM 21.2 °F 13.6 °F 17.6 °F 86% 29.94 in 10.0 mi South 5.8 mph - N/A   Scattered Clouds
10:55 PM 21.2 °F 12.6 °F 17.6 °F 86% 29.93 in 10.0 mi South 6.9 mph - N/A   Clear
11:15 PM 21.2 °F 10.9 °F 17.6 °F 86% 29.92 in 10.0 mi South 9.2 mph - N/A   Scattered Clouds
11:35 PM 21.2 °F 11.7 °F 17.6 °F 86% 29.92 in 10.0 mi South 8.1 mph - N/A   Mostly Cloudy
11:55 PM 21.2 °F 12.6 °F 17.6 °F 86% 29.91 in 10.0 mi South 6.9 mph - N/A   Overcast